,,Stat5,,Stat1,,Stat2,,Stat3,,Stat4,,Wind1,,Wind1,
time,status,PA1M_AVG,status,PR1M_SUM,status,RH1M_AVG,status,SR1M_AVG,status,TA1M_AVG,status,W1dAve1m,status,W1sAve1m,
2001-09-05, 00:00:00,VALID,918.654,VALID,0,VALID,91.1728,VALID,-0.0509425,VALID,19.6774,VALID,21,VALID,0.295397,
2001-09-05, 00:01:00,VALID,918.658,VALID,0,VALID,91.2453,VALID,0,VALID,19.6379,VALID,13,VALID,0.169671,
2001-09-05, 00:02:00,VALID,918.657,VALID,0,VALID,91.2414,VALID,0,VALID,19.6249,VALID,28,VALID,0.329527,
2001-09-05, 00:03:00,VALID,918.663,VALID,0,VALID,91.277,VALID,0.0169808,VALID,19.6115,VALID,31,VALID,0.117393,
2001-09-05, 00:04:00,VALID,918.659,VALID,0,VALID,91.0494,VALID,0,VALID,19.6217,VALID,31,VALID,0,
2001-09-05, 00:05:00,VALID,918.629,VALID,0,VALID,90.8752,VALID,0,VALID,19.6416,VALID,31,VALID,0.0051398,
2001-09-05, 00:06:00,VALID,918.612,VALID,0,VALID,90.7175,VALID,0.0169808,VALID,19.6535,VALID,32,VALID,0.242821,
2001-09-05, 00:07:00,VALID,918.587,VALID,0,VALID,90.846,VALID,0.0339617,VALID,19.6861,VALID,33,VALID,0.0709293,
2001-09-05, 00:08:00,VALID,918.554,VALID,0,VALID,90.7226,VALID,0,VALID,19.6826,VALID,33,VALID,0,
2001-09-05, 00:09:00,VALID,918.535,VALID,0,VALID,90.3946,VALID,0.0339617,VALID,19.6826,VALID,69,VALID,0.0452303,
2001-09-05, 00:10:00,VALID,918.497,VALID,0,VALID,90.3297,VALID,0.0339617,VALID,19.6826,VALID,94,VALID,0.252604,
2001-09-05, 00:11:00,VALID,918.478,VALID,0,VALID,90.6018,VALID,0.0339617,VALID,19.7022,VALID,93,VALID,0.327919,
2001-09-05, 00:12:00,VALID,918.44,VALID,0,VALID,90.1034,VALID,0.0339617,VALID,19.7082,VALID,53,VALID,0.140419,
2001-09-05, 00:13:00,VALID,918.42,VALID,0,VALID,90.3793,VALID,0.0339617,VALID,19.7606,VALID,23,VALID,0.228125,
2001-09-05, 00:14:00,VALID,918.398,VALID,0,VALID,90.5154,VALID,0.0679233,VALID,19.7604,VALID,24,VALID,0.0365954,
2001-09-05, 00:15:00,VALID,918.397,VALID,0,VALID,90.5014,VALID,0.0169808,VALID,19.6888,VALID,27,VALID,0.368243,
2001-09-05, 00:16:00,VALID,918.38,VALID,0,VALID,90.9261,VALID,0.0169808,VALID,19.6632,VALID,34,VALID,0.361637,
2001-09-05, 00:17:00,VALID,918.37,VALID,0,VALID,91.2949,VALID,0.0339617,VALID,19.6411,VALID,34,VALID,0.103165,
2001-09-05, 00:18:00,VALID,918.347,VALID,0,VALID,91.4602,VALID,0.0339617,VALID,19.6051,VALID,40,VALID,0.306027,
2001-09-05, 00:19:00,VALID,918.334,VALID,0,VALID,91.3012,VALID,0.0339617,VALID,19.5765,VALID,48,VALID,0.516406,
2001-09-05, 00:20:00,VALID,918.322,VALID,0,VALID,91.2783,VALID,0.0509425,VALID,19.5631,VALID,48,VALID,0.381664,
2001-09-05, 00:21:00,VALID,918.328,VALID,0,VALID,91.6496,VALID,0.0169808,VALID,19.5859,VALID,48,VALID,0.00211149,
2001-09-05, 00:22:00,VALID,918.316,VALID,0,VALID,91.4169,VALID,0.0509425,VALID,19.5852,VALID,48,VALID,0.126838,
2001-09-05, 00:23:00,VALID,918.294,VALID,0,VALID,90.5688,VALID,0.0679233,VALID,19.5887,VALID,48,VALID,0.0859375,
2001-09-05, 00:24:00,VALID,918.282,VALID,0,VALID,90.1199,VALID,0.0679233,VALID,19.6341,VALID,48,VALID,0,
2001-09-05, 00:25:00,VALID,918.262,VALID,0,VALID,90.3068,VALID,0.0679233,VALID,19.6831,VALID,48,VALID,0.00120192,
2001-09-05, 00:26:00,VALID,918.253,VALID,0,VALID,90.4403,VALID,0.0509425,VALID,19.7049,VALID,48,VALID,0.00178571,
2001-09-05, 00:27:00,VALID,918.255,VALID,0,VALID,90.3818,VALID,0,VALID,19.7184,VALID,48,VALID,0.138302,
2001-09-05, 00:28:00,VALID,918.228,VALID,0,VALID,89.7435,VALID,0.0679233,VALID,19.7149,VALID,72,VALID,0.34352,
2001-09-05, 00:29:00,VALID,918.216,VALID,0,VALID,90.4937,VALID,0.0679233,VALID,19.7509,VALID,84,VALID,0.265414,
2001-09-05, 00:30:00,VALID,918.2,VALID,0,VALID,90.5929,VALID,0,VALID,19.777,VALID,84,VALID,0.173931,
2001-09-05, 00:31:00,VALID,918.185,VALID,0,VALID,90.6362,VALID,-0.0679233,VALID,19.7745,VALID,84,VALID,0,
2001-09-05, 00:32:00,VALID,918.165,VALID,0,VALID,91.0596,VALID,-0.0679233,VALID,19.7807,VALID,84,VALID,0,
2001-09-05, 00:33:00,VALID,918.155,VALID,0,VALID,91.2529,VALID,-0.0679233,VALID,19.781,VALID,90,VALID,0,
2001-09-05, 00:34:00,VALID,918.13,VALID,0,VALID,91.0749,VALID,-0.0849042,VALID,19.7454,VALID,136,VALID,0.218061,
2001-09-05, 00:35:00,VALID,918.126,VALID,0,VALID,91.4805,VALID,-0.0679233,VALID,19.7325,VALID,163,VALID,0.219383,
2001-09-05, 00:36:00,VALID,918.115,VALID,0,VALID,91.9968,VALID,-0.0509425,VALID,19.7425,VALID,163,VALID,0.282959,
2001-09-05, 00:37:00,VALID,918.087,VALID,0,VALID,92.41,VALID,-0.0679233,VALID,19.7154,VALID,163,VALID,0.489984,
2001-09-05, 00:38:00,VALID,918.076,VALID,0,VALID,92.7419,VALID,-0.0849042,VALID,19.6967,VALID,163,VALID,0.102679,
2001-09-05, 00:39:00,VALID,918.046,VALID,0,VALID,92.9263,VALID,-0.0849042,VALID,19.6808,VALID,163,VALID,0,
2001-09-05, 00:40:00,VALID,918.034,VALID,0,VALID,93.0102,VALID,-0.101885,VALID,19.6421,VALID,163,VALID,0,
2001-09-05, 00:41:00,VALID,918.017,VALID,0,VALID,93.2162,VALID,-0.101885,VALID,19.6294,VALID,163,VALID,0,
2001-09-05, 00:42:00,VALID,918.008,VALID,0,VALID,93.3498,VALID,-0.0849042,VALID,19.5998,VALID,163,VALID,0,
2001-09-05, 00:43:00,VALID,917.976,VALID,0,VALID,93.4197,VALID,-0.0679233,VALID,19.5904,VALID,163,VALID,0,
2001-09-05, 00:44:00,VALID,917.976,VALID,0,VALID,93.4006,VALID,-0.0509425,VALID,19.5322,VALID,163,VALID,0,
2001-09-05, 00:45:00,VALID,917.966,VALID,0,VALID,93.4655,VALID,-0.0339617,VALID,19.5154,VALID,163,VALID,0,
2001-09-05, 00:46:00,VALID,917.945,VALID,0,VALID,93.44,VALID,0.0849042,VALID,19.5049,VALID,163,VALID,0,
2001-09-05, 00:47:00,VALID,917.935,VALID,0,VALID,93.4935,VALID,0.0339617,VALID,19.4985,VALID,163,VALID,0,
2001-09-05, 00:48:00,VALID,917.932,VALID,0,VALID,93.4706,VALID,0.0509425,VALID,19.4851,VALID,163,VALID,0,
2001-09-05, 00:49:00,VALID,917.916,VALID,0,VALID,93.1641,VALID,0.0679233,VALID,19.4788,VALID,163,VALID,0,
2001-09-05, 00:50:00,VALID,917.916,VALID,0,VALID,92.4456,VALID,0.0679233,VALID,19.453,VALID,163,VALID,0,
2001-09-05, 00:51:00,VALID,917.905,VALID,0,VALID,92.1214,VALID,0.0849042,VALID,19.4657,VALID,163,VALID,0,
2001-09-05, 00:52:00,VALID,917.911,VALID,0,VALID,92.6186,VALID,0.0849042,VALID,19.4947,VALID,166,VALID,0,
2001-09-05, 00:53:00,VALID,917.931,VALID,0,VALID,93.1145,VALID,0.0339617,VALID,19.534,VALID,190,VALID,0.00844595,
2001-09-05, 00:54:00,VALID,917.924,VALID,0,VALID,93.0827,VALID,0.0339617,VALID,19.5566,VALID,190,VALID,0,
2001-09-05, 00:55:00,VALID,917.908,VALID,0,VALID,92.466,VALID,0.0509425,VALID,19.5305,VALID,190,VALID,0,
2001-09-05, 00:56:00,VALID,917.922,VALID,0,VALID,92.6275,VALID,0.101885,VALID,19.5467,VALID,190,VALID,0,
2001-09-05, 00:57:00,VALID,917.928,VALID,0,VALID,92.8322,VALID,0.0849042,VALID,19.5723,VALID,190,VALID,0,
2001-09-05, 00:58:00,VALID,917.921,VALID,0,VALID,92.9174,VALID,0.0169808,VALID,19.5889,VALID,190,VALID,0,
2001-09-05, 00:59:00,VALID,917.926,VALID,0,VALID,93.0471,VALID,0.0679233,VALID,19.6018,VALID,190,VALID,0,
2001-09-05, 01:00:00,VALID,917.912,VALID,0,VALID,93.1171,VALID,0.0679233,VALID,19.6016,VALID,133,VALID,0.125,
2001-09-05, 01:01:00,VALID,917.898,VALID,0,VALID,92.9696,VALID,0.0339617,VALID,19.572,VALID,84,VALID,0.0250401,
2001-09-05, 01:02:00,VALID,917.905,VALID,0,VALID,92.906,VALID,0.0509425,VALID,19.5628,VALID,84,VALID,0,
2001-09-05, 01:03:00,VALID,917.903,VALID,0,VALID,92.7216,VALID,0.0509425,VALID,19.5365,VALID,84,VALID,0,
2001-09-05, 01:04:00,VALID,917.904,VALID,0,VALID,92.6771,VALID,0.0509425,VALID,19.5305,VALID,84,VALID,0,
2001-09-05, 01:05:00,VALID,917.902,VALID,0,VALID,92.8716,VALID,0.0679233,VALID,19.5372,VALID,84,VALID,0,
2001-09-05, 01:06:00,VALID,917.912,VALID,0,VALID,92.9721,VALID,0.101885,VALID,19.537,VALID,84,VALID,0,
2001-09-05, 01:07:00,VALID,917.918,VALID,0,VALID,93.0993,VALID,0.0849042,VALID,19.5365,VALID,84,VALID,0,
2001-09-05, 01:08:00,VALID,917.905,VALID,0,VALID,93.3637,VALID,0.101885,VALID,19.5591,VALID,78,VALID,0,
2001-09-05, 01:09:00,VALID,917.907,VALID,0,VALID,93.5214,VALID,0.0679233,VALID,19.5849,VALID,77,VALID,0,
2001-09-05, 01:10:00,VALID,917.89,VALID,0,VALID,93.4489,VALID,0.0169808,VALID,19.5854,VALID,77,VALID,0,
2001-09-05, 01:11:00,VALID,917.893,VALID,0,VALID,93.1285,VALID,0.0679233,VALID,19.5924,VALID,77,VALID,0,
2001-09-05, 01:12:00,VALID,917.887,VALID,0,VALID,92.7254,VALID,0.0679233,VALID,19.5787,VALID,77,VALID,0,
2001-09-05, 01:13:00,VALID,917.891,VALID,0,VALID,92.7229,VALID,0.0509425,VALID,19.6078,VALID,77,VALID,0,
2001-09-05, 01:14:00,VALID,917.897,VALID,0,VALID,92.8246,VALID,0.0849042,VALID,19.6207,VALID,77,VALID,0,
2001-09-05, 01:15:00,VALID,917.886,VALID,0,VALID,92.686,VALID,0.0169808,VALID,19.6247,VALID,77,VALID,0,
2001-09-05, 01:16:00,VALID,917.9,VALID,0,VALID,92.7305,VALID,-0.0339617,VALID,19.6386,VALID,87,VALID,0,
2001-09-05, 01:17:00,VALID,917.901,VALID,0,VALID,92.9187,VALID,-0.0509425,VALID,19.6314,VALID,203,VALID,0,
2001-09-05, 01:18:00,VALID,917.891,VALID,0,VALID,92.3401,VALID,-0.0679233,VALID,19.6058,VALID,203,VALID,0,
2001-09-05, 01:19:00,VALID,917.874,VALID,0,VALID,92.8894,VALID,-0.0169808,VALID,19.6224,VALID,183,VALID,0,
2001-09-05, 01:20:00,VALID,917.884,VALID,0,VALID,93.2086,VALID,-0.0169808,VALID,19.6056,VALID,120,VALID,0,
2001-09-05, 01:21:00,VALID,917.868,VALID,0,VALID,93.2849,VALID,0,VALID,19.5964,VALID,80,VALID,0,
2001-09-05, 01:22:00,VALID,917.871,VALID,0,VALID,93.4273,VALID,-0.0509425,VALID,19.5703,VALID,80,VALID,0,
2001-09-05, 01:23:00,VALID,917.857,VALID,0,VALID,93.5634,VALID,-0.0339617,VALID,19.5576,VALID,80,VALID,0,
2001-09-05, 01:24:00,VALID,917.856,VALID,0,VALID,93.4197,VALID,-0.0169808,VALID,19.5447,VALID,78,VALID,0,
2001-09-05, 01:25:00,VALID,917.86,VALID,0,VALID,93.0751,VALID,-0.0339617,VALID,19.529,VALID,66,VALID,0,
2001-09-05, 01:26:00,VALID,917.857,VALID,0,VALID,92.7368,VALID,0,VALID,19.5228,VALID,66,VALID,0,
2001-09-05, 01:27:00,VALID,917.841,VALID,0,VALID,92.658,VALID,0,VALID,19.5221,VALID,66,VALID,0,
2001-09-05, 01:28:00,VALID,917.832,VALID,0,VALID,92.7407,VALID,0,VALID,19.5285,VALID,60,VALID,0.0928309,
2001-09-05, 01:29:00,VALID,917.83,VALID,0,VALID,92.9619,VALID,-0.0169808,VALID,19.5352,VALID,41,VALID,0.40625,
2001-09-05, 01:30:00,VALID,917.834,VALID,0,VALID,93.07,VALID,0,VALID,19.5285,VALID,53,VALID,0.121711,
2001-09-05, 01:31:00,VALID,917.83,VALID,0,VALID,92.8793,VALID,-0.0339617,VALID,19.5158,VALID,53,VALID,0,
2001-09-05, 01:32:00,VALID,917.804,VALID,0,VALID,92.5512,VALID,-0.0169808,VALID,19.4768,VALID,71,VALID,0.335491,
2001-09-05, 01:33:00,VALID,917.789,VALID,0,VALID,92.4151,VALID,-0.0339617,VALID,19.4512,VALID,97,VALID,0.582559,
2001-09-05, 01:34:00,VALID,917.757,VALID,0,VALID,92.3999,VALID,-0.0849042,VALID,19.4391,VALID,101,VALID,0.566176,
2001-09-05, 01:35:00,VALID,917.751,VALID,0,VALID,92.1977,VALID,-0.0339617,VALID,19.4122,VALID,96,VALID,0.752956,
2001-09-05, 01:36:00,VALID,917.731,VALID,0,VALID,91.9218,VALID,-0.0339617,VALID,19.4316,VALID,101,VALID,0.810059,
2001-09-05, 01:37:00,VALID,917.716,VALID,0,VALID,92.2231,VALID,-0.0509425,VALID,19.49,VALID,122,VALID,0.619391,
2001-09-05, 01:38:00,VALID,917.706,VALID,0,VALID,92.5728,VALID,-0.0679233,VALID,19.5196,VALID,164,VALID,0.330134,
2001-09-05, 01:39:00,VALID,917.702,VALID,0,VALID,92.7801,VALID,-0.0509425,VALID,19.5156,VALID,160,VALID,0.298142,
2001-09-05, 01:40:00,VALID,917.697,VALID,0,VALID,93.1005,VALID,-0.0679233,VALID,19.5191,VALID,162,VALID,0.585708,
2001-09-05, 01:41:00,VALID,917.704,VALID,0,VALID,93.3841,VALID,-0.0509425,VALID,19.5322,VALID,169,VALID,0.666174,
2001-09-05, 01:42:00,VALID,917.697,VALID,0,VALID,93.5202,VALID,-0.0339617,VALID,19.5253,VALID,169,VALID,0.503084,
2001-09-05, 01:43:00,VALID,917.685,VALID,0,VALID,93.5507,VALID,-0.0169808,VALID,19.5226,VALID,164,VALID,0.508018,
2001-09-05, 01:44:00,VALID,917.666,VALID,0,VALID,93.4248,VALID,-0.0679233,VALID,19.4965,VALID,164,VALID,0.520536,
2001-09-05, 01:45:00,VALID,917.646,VALID,0,VALID,93.468,VALID,-0.0169808,VALID,19.4828,VALID,164,VALID,0.408995,
2001-09-05, 01:46:00,VALID,917.629,VALID,0,VALID,93.4985,VALID,0,VALID,19.4632,VALID,155,VALID,0.307215,
2001-09-05, 01:47:00,VALID,917.598,VALID,0,VALID,93.627,VALID,0,VALID,19.4634,VALID,155,VALID,0,
2001-09-05, 01:48:00,VALID,917.58,VALID,0,VALID,93.7173,VALID,0,VALID,19.447,VALID,155,VALID,0,
2001-09-05, 01:49:00,VALID,917.575,VALID,0,VALID,93.8673,VALID,-0.0169808,VALID,19.447,VALID,155,VALID,0,
2001-09-05, 01:50:00,VALID,917.566,VALID,0,VALID,93.969,VALID,0,VALID,19.444,VALID,157,VALID,0.122991,
2001-09-05, 01:51:00,VALID,917.537,VALID,0,VALID,93.88,VALID,0,VALID,19.4205,VALID,181,VALID,0.403505,
2001-09-05, 01:52:00,VALID,917.521,VALID,0,VALID,93.6282,VALID,-0.0339617,VALID,19.4212,VALID,202,VALID,0.191176,
2001-09-05, 01:53:00,VALID,917.501,VALID,0,VALID,93.5291,VALID,-0.0169808,VALID,19.4145,VALID,202,VALID,0,
2001-09-05, 01:54:00,VALID,917.478,VALID,0,VALID,93.6575,VALID,0,VALID,19.4304,VALID,202,VALID,0,
2001-09-05, 01:55:00,VALID,917.454,VALID,0,VALID,93.7592,VALID,0.0169808,VALID,19.4339,VALID,176,VALID,0.198808,
2001-09-05, 01:56:00,VALID,917.421,VALID,0,VALID,93.847,VALID,0.0339617,VALID,19.4078,VALID,42,VALID,0.108929,
2001-09-05, 01:57:00,VALID,917.421,VALID,0,VALID,94.0555,VALID,0,VALID,19.3921,VALID,42,VALID,0,
2001-09-05, 01:58:00,VALID,917.422,VALID,0,VALID,94.0288,VALID,0.0169808,VALID,19.3658,VALID,42,VALID,0,
2001-09-05, 01:59:00,VALID,917.432,VALID,0,VALID,94.2132,VALID,0.0339617,VALID,19.3208,VALID,42,VALID,0,
2001-09-05, 02:00:00,VALID,917.421,VALID,0,VALID,94.4522,VALID,0.0169808,VALID,19.298,VALID,42,VALID,0.0344238,
2001-09-05, 02:01:00,VALID,917.397,VALID,0,VALID,94.3709,VALID,0,VALID,19.2888,VALID,46,VALID,0.484976,
2001-09-05, 02:02:00,VALID,917.383,VALID,0,VALID,94.3009,VALID,0.0169808,VALID,19.2624,VALID,46,VALID,0.338616,
2001-09-05, 02:03:00,VALID,917.37,VALID,0,VALID,94.4383,VALID,0.0169808,VALID,19.2498,VALID,46,VALID,0.263514,
2001-09-05, 02:04:00,VALID,917.378,VALID,0,VALID,94.6951,VALID,0,VALID,19.2304,VALID,46,VALID,0.148897,
2001-09-05, 02:05:00,VALID,917.385,VALID,0,VALID,94.5947,VALID,0.0339617,VALID,19.2175,VALID,46,VALID,0.206715,
2001-09-05, 02:06:00,VALID,917.383,VALID,0,VALID,94.8541,VALID,0,VALID,19.2272,VALID,43,VALID,0.0553043,
2001-09-05, 02:07:00,VALID,917.388,VALID,0,VALID,94.821,VALID,0,VALID,19.2302,VALID,25,VALID,0.38713,
2001-09-05, 02:08:00,VALID,917.368,VALID,0,VALID,94.774,VALID,0,VALID,19.2371,VALID,25,VALID,0.247098,
2001-09-05, 02:09:00,VALID,917.38,VALID,0,VALID,94.498,VALID,0,VALID,19.2272,VALID,25,VALID,0.293074,
2001-09-05, 02:10:00,VALID,917.376,VALID,0,VALID,94.3047,VALID,0,VALID,19.2202,VALID,25,VALID,0.267693,
2001-09-05, 02:11:00,VALID,917.387,VALID,0,VALID,94.3391,VALID,-0.0169808,VALID,19.253,VALID,19,VALID,0.23712,
2001-09-05, 02:12:00,VALID,917.397,VALID,0,VALID,94.3607,VALID,-0.0169808,VALID,19.2694,VALID,18,VALID,0.0424805,
2001-09-05, 02:13:00,VALID,917.405,VALID,0,VALID,94.3136,VALID,0,VALID,19.3176,VALID,18,VALID,0,
2001-09-05, 02:14:00,VALID,917.391,VALID,0,VALID,94.5463,VALID,-0.0169808,VALID,19.3566,VALID,18,VALID,0,
2001-09-05, 02:15:00,VALID,917.39,VALID,0,VALID,94.6888,VALID,0,VALID,19.3929,VALID,19,VALID,0,
2001-09-05, 02:16:00,VALID,917.389,VALID,0,VALID,94.4904,VALID,0,VALID,19.3854,VALID,19,VALID,0,
2001-09-05, 02:17:00,VALID,917.383,VALID,0,VALID,94.0008,VALID,0,VALID,19.3762,VALID,20,VALID,0,
2001-09-05, 02:18:00,VALID,917.399,VALID,0,VALID,93.44,VALID,0,VALID,19.3434,VALID,21,VALID,0.0768914,
2001-09-05, 02:19:00,VALID,917.387,VALID,0,VALID,93.0624,VALID,0,VALID,19.3593,VALID,26,VALID,0.317845,
2001-09-05, 02:20:00,VALID,917.415,VALID,0,VALID,92.7763,VALID,0,VALID,19.405,VALID,28,VALID,0.360938,
2001-09-05, 02:21:00,VALID,917.422,VALID,0,VALID,93.056,VALID,-0.0169808,VALID,19.4503,VALID,28,VALID,0.589286,
2001-09-05, 02:22:00,VALID,917.432,VALID,0,VALID,93.3027,VALID,-0.0169808,VALID,19.4766,VALID,28,VALID,0.567096,
2001-09-05, 02:23:00,VALID,917.435,VALID,0,VALID,93.5825,VALID,0,VALID,19.4629,VALID,28,VALID,0.389358,
2001-09-05, 02:24:00,VALID,917.455,VALID,0,VALID,93.7719,VALID,0,VALID,19.4436,VALID,27,VALID,0.266846,
2001-09-05, 02:25:00,VALID,917.464,VALID,0,VALID,93.641,VALID,-0.0169808,VALID,19.4242,VALID,27,VALID,0.467949,
2001-09-05, 02:26:00,VALID,917.455,VALID,0,VALID,93.4426,VALID,0.0339617,VALID,19.3951,VALID,29,VALID,0.628795,
2001-09-05, 02:27:00,VALID,917.448,VALID,0,VALID,93.5647,VALID,0,VALID,19.3725,VALID,35,VALID,0.736909,
2001-09-05, 02:28:00,VALID,917.473,VALID,0,VALID,94.1115,VALID,0,VALID,19.3631,VALID,15,VALID,0.79182,
2001-09-05, 02:29:00,VALID,917.484,VALID,0,VALID,94.1471,VALID,-0.0169808,VALID,19.3241,VALID,345,VALID,0.852407,
2001-09-05, 02:30:00,VALID,917.491,VALID,0,VALID,94.1534,VALID,0.0339617,VALID,19.3007,VALID,334,VALID,0.281044,
2001-09-05, 02:31:00,VALID,917.493,VALID,0,VALID,94.1878,VALID,0.118866,VALID,19.2975,VALID,327,VALID,0.00822368,
2001-09-05, 02:32:00,VALID,917.487,VALID,0,VALID,94.0606,VALID,0.101885,VALID,19.3037,VALID,297,VALID,0.134821,
2001-09-05, 02:33:00,VALID,917.459,VALID,0,VALID,94.1916,VALID,0.135847,VALID,19.3166,VALID,279,VALID,0.0173142,
2001-09-05, 02:34:00,VALID,917.445,VALID,0,VALID,94.3861,VALID,0.101885,VALID,19.3196,VALID,279,VALID,0,
2001-09-05, 02:35:00,VALID,917.424,VALID,0,VALID,94.5069,VALID,0.0849042,VALID,19.3293,VALID,338,VALID,0.295186,
2001-09-05, 02:36:00,VALID,917.412,VALID,0,VALID,94.5807,VALID,0.118866,VALID,19.3422,VALID,2,VALID,0.327148,
2001-09-05, 02:37:00,VALID,917.403,VALID,0,VALID,94.5769,VALID,0.118866,VALID,19.3295,VALID,354,VALID,0.499599,
2001-09-05, 02:38:00,VALID,917.401,VALID,0,VALID,94.6621,VALID,0.0679233,VALID,19.333,VALID,357,VALID,0.139955,
2001-09-05, 02:39:00,VALID,917.393,VALID,0,VALID,94.7256,VALID,0.0509425,VALID,19.3291,VALID,357,VALID,0.315245,
2001-09-05, 02:40:00,VALID,917.398,VALID,0,VALID,94.7129,VALID,0.101885,VALID,19.3258,VALID,7,VALID,0.619256,
2001-09-05, 02:41:00,VALID,917.391,VALID,0,VALID,94.7574,VALID,0.101885,VALID,19.3261,VALID,18,VALID,0.442356,
2001-09-05, 02:42:00,VALID,917.394,VALID,0,VALID,94.8185,VALID,0.0849042,VALID,19.3161,VALID,21,VALID,0.416118,
2001-09-05, 02:43:00,VALID,917.388,VALID,0,VALID,94.9329,VALID,0.0849042,VALID,19.3194,VALID,27,VALID,0.262336,
2001-09-05, 02:44:00,VALID,917.372,VALID,0,VALID,95.0219,VALID,0.101885,VALID,19.3261,VALID,27,VALID,0.188839,
2001-09-05, 02:45:00,VALID,917.37,VALID,0,VALID,95.0639,VALID,0.0509425,VALID,19.3365,VALID,43,VALID,0.273438,
2001-09-05, 02:46:00,VALID,917.351,VALID,0,VALID,94.8744,VALID,0.0339617,VALID,19.3275,VALID,69,VALID,0.276195,
2001-09-05, 02:47:00,VALID,917.352,VALID,0,VALID,94.8388,VALID,0.0169808,VALID,19.3052,VALID,63,VALID,0.159628,
2001-09-05, 02:48:00,VALID,917.347,VALID,0,VALID,94.8655,VALID,0,VALID,19.2982,VALID,58,VALID,0,
2001-09-05, 02:49:00,VALID,917.337,VALID,0,VALID,94.7689,VALID,0,VALID,19.3084,VALID,58,VALID,0.0010016,
2001-09-05, 02:50:00,VALID,917.323,VALID,0,VALID,94.7498,VALID,0,VALID,19.3081,VALID,51,VALID,0.522545,
2001-09-05, 02:51:00,VALID,917.295,VALID,0,VALID,94.7574,VALID,0,VALID,19.3213,VALID,57,VALID,0.954603,
2001-09-05, 02:52:00,VALID,917.249,VALID,0,VALID,94.6837,VALID,-0.0169808,VALID,19.3404,VALID,32,VALID,0.549403,
2001-09-05, 02:53:00,VALID,917.278,VALID,0,VALID,94.5349,VALID,0,VALID,19.3501,VALID,318,VALID,0.851563,
2001-09-05, 02:54:00,VALID,917.317,VALID,0,VALID,94.4739,VALID,-0.0169808,VALID,19.3496,VALID,11,VALID,0.576891,
2001-09-05, 02:55:00,VALID,917.32,VALID,0,VALID,94.6595,VALID,0,VALID,19.3663,VALID,28,VALID,0.501234,
2001-09-05, 02:56:00,VALID,917.327,VALID,0,VALID,94.6951,VALID,0,VALID,19.3954,VALID,19,VALID,0.939955,
2001-09-05, 02:57:00,VALID,917.328,VALID,0,VALID,94.3963,VALID,0,VALID,19.4023,VALID,16,VALID,1.04497,
2001-09-05, 02:58:00,VALID,917.316,VALID,0,VALID,94.4077,VALID,0,VALID,19.408,VALID,60,VALID,0.752298,
2001-09-05, 02:59:00,VALID,917.326,VALID,0,VALID,94.4255,VALID,0,VALID,19.4142,VALID,244,VALID,0.739865,
2001-09-05, 03:00:00,VALID,917.363,VALID,0,VALID,94.334,VALID,0,VALID,19.418,VALID,242,VALID,0.114746,
2001-09-05, 03:01:00,VALID,917.357,VALID,0,VALID,94.1483,VALID,-0.0169808,VALID,19.4309,VALID,358,VALID,0.685296,
2001-09-05, 03:02:00,VALID,917.355,VALID,0,VALID,94.0377,VALID,-0.0169808,VALID,19.489,VALID,6,VALID,1.06629,
2001-09-05, 03:03:00,VALID,917.353,VALID,0,VALID,93.8342,VALID,0.0339617,VALID,19.5176,VALID,25,VALID,0.945313,
2001-09-05, 03:04:00,VALID,917.354,VALID,0,VALID,93.7618,VALID,0.0169808,VALID,19.5377,VALID,31,VALID,0.451746,
2001-09-05, 03:05:00,VALID,917.353,VALID,0,VALID,93.749,VALID,0,VALID,19.5432,VALID,353,VALID,0.229096,
2001-09-05, 03:06:00,VALID,917.397,VALID,0,VALID,93.4578,VALID,0.0169808,VALID,19.5437,VALID,9,VALID,1.36575,
2001-09-05, 03:07:00,VALID,917.384,VALID,0,VALID,92.8755,VALID,0.0169808,VALID,19.5889,VALID,10,VALID,1.54708,
2001-09-05, 03:08:00,VALID,917.394,VALID,0,VALID,92.63,VALID,-0.0169808,VALID,19.651,VALID,313,VALID,0.70067,
2001-09-05, 03:09:00,VALID,917.43,VALID,0,VALID,92.719,VALID,0,VALID,19.6764,VALID,248,VALID,0.271115,
2001-09-05, 03:10:00,VALID,917.47,VALID,0,VALID,92.5181,VALID,0,VALID,19.6955,VALID,245,VALID,1.35202,
2001-09-05, 03:11:00,VALID,917.485,VALID,0,VALID,91.2427,VALID,0,VALID,19.815,VALID,270,VALID,2.17483,
2001-09-05, 03:12:00,VALID,917.51,VALID,0,VALID,90.3233,VALID,0,VALID,19.9313,VALID,248,VALID,4.11279,
2001-09-05, 03:13:00,VALID,917.455,VALID,0,VALID,90.3984,VALID,-0.0169808,VALID,19.8988,VALID,247,VALID,2.77784,
2001-09-05, 03:14:00,VALID,917.629,VALID,0.2,VALID,91.1613,VALID,0,VALID,19.8153,VALID,277,VALID,3.69732,
2001-09-05, 03:15:00,VALID,917.576,VALID,0,VALID,92.3757,VALID,-0.0169808,VALID,19.6341,VALID,227,VALID,2.41491,
2001-09-05, 03:16:00,VALID,917.621,VALID,0.2,VALID,93.2989,VALID,0.0169808,VALID,19.4923,VALID,267,VALID,2.43796,
2001-09-05, 03:17:00,VALID,917.615,VALID,0.2,VALID,93.6956,VALID,0,VALID,19.2788,VALID,269,VALID,3.5416,
2001-09-05, 03:18:00,VALID,917.691,VALID,0.2,VALID,95.2038,VALID,0.0169808,VALID,19.0885,VALID,46,VALID,0.910362,
2001-09-05, 03:19:00,VALID,917.772,VALID,0,VALID,96.1397,VALID,0,VALID,19.0269,VALID,24,VALID,1.18072,
2001-09-05, 03:20:00,VALID,917.763,VALID,0,VALID,96.3724,VALID,0,VALID,18.9333,VALID,346,VALID,1.81496,
2001-09-05, 03:21:00,VALID,917.704,VALID,0,VALID,96.5059,VALID,0.0339617,VALID,18.8366,VALID,14,VALID,1.19911,
2001-09-05, 03:22:00,VALID,917.693,VALID,0,VALID,96.9726,VALID,0,VALID,18.8106,VALID,95,VALID,0.763097,
2001-09-05, 03:23:00,VALID,917.65,VALID,0,VALID,97.1226,VALID,0,VALID,18.7557,VALID,19,VALID,2.4016,
2001-09-05, 03:24:00,VALID,917.641,VALID,0,VALID,96.9573,VALID,0,VALID,18.6915,VALID,266,VALID,1.85181,
2001-09-05, 03:25:00,VALID,917.656,VALID,0,VALID,97.2243,VALID,-0.0169808,VALID,18.6627,VALID,25,VALID,2.1901,
2001-09-05, 03:26:00,VALID,917.643,VALID,0.2,VALID,97.4698,VALID,0,VALID,18.653,VALID,38,VALID,2.04129,
2001-09-05, 03:27:00,VALID,917.611,VALID,0,VALID,97.4977,VALID,0.0169808,VALID,18.611,VALID,295,VALID,1.39189,
2001-09-05, 03:28:00,VALID,917.654,VALID,0,VALID,97.4965,VALID,0.0169808,VALID,18.5591,VALID,271,VALID,1.61167,
2001-09-05, 03:29:00,VALID,917.575,VALID,0,VALID,97.4977,VALID,0.0169808,VALID,18.5206,VALID,328,VALID,1.68834,
2001-09-05, 03:30:00,VALID,917.603,VALID,0,VALID,97.6224,VALID,0.0169808,VALID,18.4849,VALID,297,VALID,0.506168,
2001-09-05, 03:31:00,VALID,917.589,VALID,0,VALID,97.663,VALID,-0.0169808,VALID,18.4754,VALID,31,VALID,2.87788,
2001-09-05, 03:32:00,VALID,917.596,VALID,0,VALID,97.6732,VALID,0,VALID,18.4528,VALID,65,VALID,1.67054,
2001-09-05, 03:33:00,VALID,917.604,VALID,0,VALID,97.6821,VALID,0,VALID,18.4138,VALID,44,VALID,1.45861,
2001-09-05, 03:34:00,VALID,917.513,VALID,0,VALID,97.7165,VALID,0,VALID,18.4009,VALID,10,VALID,2.58088,
2001-09-05, 03:35:00,VALID,917.547,VALID,0,VALID,97.7165,VALID,0,VALID,18.4046,VALID,182,VALID,1.47783,
2001-09-05, 03:36:00,VALID,917.563,VALID,0,VALID,97.5359,VALID,0,VALID,18.353,VALID,264,VALID,0.981934,
2001-09-05, 03:37:00,VALID,917.516,VALID,0,VALID,97.6389,VALID,-0.0509425,VALID,18.3239,VALID,22,VALID,2.85617,
2001-09-05, 03:38:00,VALID,917.537,VALID,0,VALID,97.7076,VALID,-0.101885,VALID,18.3315,VALID,114,VALID,1.3779,